| time (UTC) | temp F | wind direction | speed MPH | gust MPH | rain 1hr in | rain 24hr in | rain mn in | humidity % | barometer mb |
| 20260503192558 | 52 | 298 | 3.0 | 9.0 | 0.00 | 0.00 | 0.00 | 46 | 1006.6 |
| 20260503192058 | 52 | 331 | 4.0 | 11.0 | 0.00 | 0.00 | 0.00 | 45 | 1006.6 |
| 20260503191558 | 52 | 250 | 5.0 | 11.0 | 0.00 | 0.00 | 0.00 | 44 | 1006.4 |
| 20260503191059 | 53 | 240 | 5.0 | 11.0 | 0.00 | 0.00 | 0.00 | 44 | 1006.5 |
| 20260503190558 | 53 | 319 | 4.0 | 9.0 | 0.00 | 0.00 | 0.00 | 43 | 1006.4 |
| 20260503190058 | 54 | 257 | 1.0 | 11.0 | 0.00 | 0.00 | 0.00 | 44 | 1006.5 |
| 20260503185558 | 54 | 234 | 4.0 | 16.0 | 0.00 | 0.00 | 0.00 | 44 | 1006.5 |
| 20260503185059 | 53 | 0 | 2.0 | 16.0 | 0.00 | 0.00 | 0.00 | 47 | 1006.5 |
| 20260503184608 | 52 | 280 | 4.0 | 9.0 | 0.00 | 0.00 | 0.00 | 47 | 1006.6 |
| 20260503184058 | 52 | 208 | 4.0 | 9.0 | 0.00 | 0.00 | 0.00 | 47 | 1006.6 |
| 20260503183558 | 51 | 320 | 2.0 | 10.0 | 0.00 | 0.00 | 0.00 | 48 | 1006.6 |
| 20260503183102 | 51 | 227 | 6.0 | 13.0 | 0.00 | 0.00 | 0.00 | 47 | 1006.6 |
| 20260503182601 | 51 | 286 | 3.0 | 13.0 | 0.00 | 0.00 | 0.00 | 47 | 1006.6 |
| 20260503182058 | 51 | 279 | 4.0 | 12.0 | 0.00 | 0.00 | 0.00 | 47 | 1006.6 |
| 20260503181602 | 52 | 240 | 4.0 | 12.0 | 0.00 | 0.00 | 0.00 | 47 | 1006.5 |
| 20260503181058 | 52 | 274 | 5.0 | 13.0 | 0.00 | 0.00 | 0.00 | 46 | 1006.5 |
| 20260503180558 | 52 | 355 | 6.0 | 14.0 | 0.00 | 0.00 | 0.00 | 46 | 1006.5 |
| 20260503180057 | 52 | 240 | 6.0 | 14.0 | 0.00 | 0.00 | 0.00 | 45 | 1006.4 |
| 20260503175557 | 52 | 248 | 5.0 | 11.0 | 0.00 | 0.00 | 0.00 | 47 | 1006.4 |
| 20260503175059 | 53 | 255 | 4.0 | 12.0 | 0.00 | 0.00 | 0.00 | 47 | 1006.5 |
| 20260503174617 | 52 | 299 | 3.0 | 13.0 | 0.00 | 0.00 | 0.00 | 50 | 1006.5 |
| 20260503174058 | 51 | 277 | 6.0 | 13.0 | 0.00 | 0.00 | 0.00 | 48 | 1006.5 |
| 20260503173559 | 51 | 289 | 4.0 | 9.0 | 0.00 | 0.00 | 0.00 | 50 | 1006.5 |
| 20260503173103 | 51 | 238 | 3.0 | 16.0 | 0.00 | 0.00 | 0.00 | 53 | 1006.6 |
| 20260503172558 | 49 | 322 | 5.0 | 16.0 | 0.00 | 0.00 | 0.00 | 52 | 1006.7 |
| 20260503172058 | 49 | 261 | 5.0 | 16.0 | 0.00 | 0.00 | 0.00 | 53 | 1006.6 |
| 20260503171558 | 49 | 281 | 5.0 | 18.0 | 0.00 | 0.00 | 0.00 | 54 | 1006.7 |
| 20260503171059 | 49 | 294 | 5.0 | 18.0 | 0.00 | 0.00 | 0.00 | 55 | 1006.8 |
| 20260503170600 | 49 | 271 | 6.0 | 18.0 | 0.00 | 0.00 | 0.00 | 54 | 1006.7 |
| 20260503160115 | 46 | 257 | 4.0 | 14.0 | 0.00 | 0.00 | 0.00 | 76 | 1006.5 |
| 20260503150558 | 45 | 270 | 5.0 | 14.0 | 0.00 | 0.00 | 0.00 | 75 | 1006.5 |
| 20260503150104 | 46 | 288 | 5.0 | 14.0 | 0.00 | 0.00 | 0.00 | 74 | 1006.5 |
| 20260503140109 | 48 | 311 | 5.0 | 13.0 | 0.00 | 0.00 | 0.00 | 66 | 1005.9 |
| 20260503131100 | 47 | 330 | 5.0 | 13.0 | 0.00 | 0.00 | 0.00 | 67 | 1006.3 |
| 20260503130559 | 47 | 269 | 3.0 | 12.0 | 0.00 | 0.00 | 0.00 | 67 | 1006.2 |
| 20260503130103 | 47 | 245 | 4.0 | 12.0 | 0.00 | 0.00 | 0.00 | 68 | 1006.2 |
| 20260503120104 | 46 | 285 | 6.0 | 15.0 | 0.00 | 0.00 | 0.00 | 70 | 1006.7 |
| 20260503110558 | 44 | 285 | 2.0 | 7.0 | 0.00 | 0.00 | 0.00 | 73 | 1006.8 |
| 20260503100126 | 45 | 257 | 1.0 | 9.0 | 0.00 | 0.00 | 0.00 | 74 | 1006.9 |
| 20260503081611 | 46 | 276 | 2.0 | 8.0 | 0.00 | 0.00 | 0.00 | 72 | 1007.5 |
| 20260503081100 | 46 | 290 | 2.0 | 9.0 | 0.00 | 0.00 | 0.00 | 72 | 1007.4 |
| 20260503080601 | 46 | 279 | 2.0 | 9.0 | 0.00 | 0.00 | 0.00 | 72 | 1007.4 |
| 20260503072601 | 47 | 306 | 2.0 | 7.0 | 0.00 | 0.00 | 0.00 | 70 | 1008.0 |
| 20260503072101 | 47 | 30 | 3.0 | 8.0 | 0.00 | 0.00 | 0.00 | 70 | 1008.1 |
| 20260503071558 | 47 | 260 | 1.0 | 10.0 | 0.00 | 0.00 | 0.00 | 70 | 1008.2 |
| 20260503071101 | 47 | 263 | 3.0 | 10.0 | 0.00 | 0.00 | 0.00 | 69 | 1008.2 |
| 20260503070601 | 47 | 273 | 2.0 | 10.0 | 0.00 | 0.00 | 0.00 | 69 | 1008.2 |
| 20260503070103 | 47 | 328 | 4.0 | 11.0 | 0.00 | 0.00 | 0.00 | 69 | 1008.4 |
| 20260503055057 | 49 | 322 | 2.0 | 6.0 | 0.00 | 0.00 | 0.00 | 70 | 1009.3 |
| 20260503054558 | 49 | 245 | 2.0 | 10.0 | 0.00 | 0.00 | 0.00 | 71 | 1009.2 |
| 20260503054057 | 49 | 302 | 3.0 | 10.0 | 0.00 | 0.00 | 0.00 | 73 | 1009.4 |
| 20260503053601 | 48 | 289 | 2.0 | 9.0 | 0.00 | 0.00 | 0.00 | 76 | 1009.5 |
| 20260503053102 | 48 | 10 | 2.0 | 7.0 | 0.00 | 0.00 | 0.00 | 80 | 1009.5 |
| 20260503052603 | 48 | 283 | 2.0 | 7.0 | 0.00 | 0.00 | 0.00 | 83 | 1009.4 |
| 20260503052057 | 48 | 329 | 2.0 | 7.0 | 0.00 | 0.00 | 0.00 | 85 | 1009.4 |
| 20260503051601 | 48 | 284 | 0.0 | 3.0 | 0.00 | 0.00 | 0.00 | 87 | 1009.4 |
| 20260503051101 | 48 | 0 | 1.0 | 3.0 | 0.00 | 0.00 | 0.00 | 87 | 1009.5 |
| 20260503050609 | 48 | 0 | 0.0 | 3.0 | 0.00 | 0.00 | 0.00 | 88 | 1009.5 |
| 20260503045603 | 48 | 0 | 0.0 | 1.0 | 0.00 | 0.00 | 0.00 | 88 | 1009.8 |
| 20260503045101 | 48 | 0 | 0.0 | 1.0 | 0.00 | 0.00 | 0.00 | 88 | 1009.8 |
| 20260503044559 | 48 | 0 | 0.0 | 1.0 | 0.00 | 0.00 | 0.00 | 88 | 1009.9 |
| 20260503044058 | 48 | 0 | 0.0 | 1.0 | 0.00 | 0.00 | 0.00 | 88 | 1009.8 |
| 20260503043557 | 48 | 0 | 0.0 | 1.0 | 0.00 | 0.00 | 0.00 | 89 | 1010.0 |
| 20260503043122 | 48 | 0 | 0.0 | 1.0 | 0.00 | 0.00 | 0.00 | 89 | 1010.0 |
| 20260503042601 | 48 | 0 | 0.0 | 0.0 | 0.00 | 0.00 | 0.00 | 89 | 1010.0 |
| 20260503042101 | 48 | 0 | 0.0 | 0.0 | 0.00 | 0.00 | 0.00 | 89 | 1010.1 |
| 20260503041600 | 48 | 0 | 0.0 | 0.0 | 0.00 | 0.00 | 0.00 | 89 | 1010.2 |
| 20260503041101 | 48 | 0 | 0.0 | 1.0 | 0.00 | 0.00 | 0.00 | 89 | 1010.5 |
| 20260503040559 | 48 | 0 | 0.0 | 1.0 | 0.00 | 0.00 | 0.00 | 89 | 1010.5 |
| 20260503040104 | 48 | 198 | 0.0 | 0.0 | 0.00 | 0.00 | 0.00 | 89 | 1010.5 |
| 20260503035603 | 48 | 0 | 0.0 | 0.0 | 0.00 | 0.00 | 0.00 | 89 | 1010.4 |
| 20260503035059 | 48 | 0 | 0.0 | 2.0 | 0.00 | 0.00 | 0.00 | 89 | 1010.5 |
| 20260503034612 | 48 | 0 | 0.0 | 2.0 | 0.00 | 0.00 | 0.00 | 89 | 1010.3 |
| 20260503034101 | 48 | 0 | 0.0 | 2.0 | 0.00 | 0.00 | 0.00 | 89 | 1010.4 |
| 20260503033600 | 48 | 0 | 0.0 | 0.0 | 0.00 | 0.00 | 0.00 | 89 | 1010.3 |
| 20260503033059 | 48 | 0 | 0.0 | 1.0 | 0.00 | 0.00 | 0.00 | 89 | 1010.3 |
| 20260503032559 | 48 | 0 | 0.0 | 1.0 | 0.00 | 0.00 | 0.00 | 89 | 1010.6 |
| 20260503032104 | 48 | 0 | 0.0 | 1.0 | 0.00 | 0.00 | 0.00 | 89 | 1010.6 |
| 20260503031600 | 48 | 0 | 0.0 | 0.0 | 0.00 | 0.00 | 0.00 | 89 | 1010.5 |
| 20260503031100 | 48 | 0 | 0.0 | 0.0 | 0.00 | 0.00 | 0.00 | 89 | 1010.4 |
| 20260503030559 | 48 | 0 | 0.0 | 0.0 | 0.00 | 0.00 | 0.00 | 88 | 1010.4 |
| 20260503030059 | 48 | 0 | 0.0 | 0.0 | 0.00 | 0.00 | 0.00 | 88 | 1010.4 |
| 20260503025558 | 48 | 0 | 0.0 | 0.0 | 0.00 | 0.00 | 0.00 | 88 | 1010.6 |
| 20260503025059 | 49 | 0 | 0.0 | 0.0 | 0.00 | 0.00 | 0.00 | 88 | 1010.5 |
| 20260503024559 | 49 | 0 | 0.0 | 0.0 | 0.00 | 0.00 | 0.00 | 88 | 1010.5 |
| 20260503024103 | 49 | 0 | 0.0 | 1.0 | 0.00 | 0.00 | 0.00 | 88 | 1010.6 |
| 20260503023601 | 49 | 0 | 0.0 | 1.0 | 0.00 | 0.00 | 0.00 | 88 | 1010.6 |
| 20260503023100 | 49 | 0 | 0.0 | 0.0 | 0.00 | 0.00 | 0.00 | 87 | 1010.6 |
| 20260503022601 | 49 | 0 | 0.0 | 0.0 | 0.00 | 0.00 | 0.00 | 87 | 1010.5 |
| 20260503022059 | 49 | 0 | 0.0 | 0.0 | 0.00 | 0.00 | 0.00 | 87 | 1010.6 |
| 20260503021603 | 49 | 0 | 0.0 | 1.0 | 0.00 | 0.00 | 0.00 | 87 | 1010.6 |
| 20260503021101 | 49 | 0 | 0.0 | 1.0 | 0.00 | 0.00 | 0.00 | 87 | 1010.6 |
| 20260503020600 | 49 | 0 | 0.0 | 1.0 | 0.00 | 0.00 | 0.00 | 87 | 1010.7 |
| 20260503020101 | 49 | 0 | 0.0 | 1.0 | 0.00 | 0.00 | 0.00 | 86 | 1010.7 |
| 20260503015600 | 49 | 0 | 0.0 | 1.0 | 0.00 | 0.00 | 0.00 | 86 | 1010.9 |
| 20260503015102 | 49 | 0 | 0.0 | 1.0 | 0.00 | 0.00 | 0.00 | 86 | 1011.0 |
| 20260503014618 | 49 | 0 | 0.0 | 1.0 | 0.00 | 0.00 | 0.00 | 86 | 1011.0 |
| 20260503014057 | 49 | 0 | 0.0 | 1.0 | 0.00 | 0.00 | 0.00 | 86 | 1011.1 |
| 20260503013559 | 49 | 0 | 0.0 | 1.0 | 0.00 | 0.00 | 0.00 | 86 | 1011.0 |
| 20260503013058 | 49 | 198 | 0.0 | 0.0 | 0.00 | 0.00 | 0.00 | 85 | 1011.0 |
| 20260503012604 | 49 | 0 | 0.0 | 0.0 | 0.00 | 0.00 | 0.00 | 85 | 1010.9 |
| 20260503012102 | 49 | 0 | 0.0 | 0.0 | 0.00 | 0.00 | 0.00 | 85 | 1011.0 |
| 20260503011559 | 49 | 0 | 0.0 | 0.0 | 0.00 | 0.00 | 0.00 | 84 | 1011.0 |
| 20260503011101 | 50 | 0 | 0.0 | 0.0 | 0.00 | 0.00 | 0.00 | 84 | 1011.0 |
| 20260503010601 | 49 | 0 | 0.0 | 0.0 | 0.00 | 0.00 | 0.00 | 84 | 1011.0 |
| 20260503010103 | 49 | 0 | 0.0 | 0.0 | 0.00 | 0.00 | 0.00 | 84 | 1011.0 |
| 20260503005603 | 49 | 0 | 0.0 | 0.0 | 0.00 | 0.00 | 0.00 | 83 | 1011.0 |
| 20260503005057 | 50 | 0 | 0.0 | 0.0 | 0.00 | 0.00 | 0.00 | 83 | 1011.0 |
| 20260503004559 | 50 | 0 | 0.0 | 0.0 | 0.00 | 0.00 | 0.00 | 83 | 1011.1 |
| 20260503004059 | 50 | 0 | 0.0 | 0.0 | 0.00 | 0.00 | 0.00 | 83 | 1011.1 |
| 20260503003600 | 50 | 0 | 0.0 | 0.0 | 0.00 | 0.00 | 0.00 | 82 | 1010.9 |
| 20260503003106 | 50 | 0 | 0.0 | 0.0 | 0.00 | 0.00 | 0.00 | 82 | 1011.0 |
| 20260503002558 | 50 | 0 | 0.0 | 1.0 | 0.00 | 0.00 | 0.00 | 81 | 1011.0 |
| 20260503002101 | 50 | 0 | 0.0 | 1.0 | 0.00 | 0.00 | 0.00 | 81 | 1010.8 |
| 20260503001619 | 50 | 0 | 0.0 | 1.0 | 0.00 | 0.00 | 0.00 | 81 | 1011.0 |
| 20260503001100 | 50 | 0 | 0.0 | 1.0 | 0.00 | 0.00 | 0.00 | 81 | 1011.0 |
| 20260503000600 | 50 | 0 | 0.0 | 1.0 | 0.00 | 0.00 | 0.00 | 81 | 1011.0 |
| 20260503000121 | 50 | 0 | 0.0 | 0.0 | 0.00 | 0.00 | 0.00 | 81 | 1011.0 |
| 20260502235601 | 50 | 0 | 0.0 | 1.0 | 0.00 | 0.00 | 0.00 | 80 | 1010.9 |
| 20260502235100 | 50 | 0 | 0.0 | 1.0 | 0.00 | 0.00 | 0.00 | 80 | 1011.0 |
| 20260502234605 | 50 | 0 | 0.0 | 1.0 | 0.00 | 0.00 | 0.00 | 80 | 1011.0 |
| 20260502234100 | 50 | 0 | 0.0 | 1.0 | 0.00 | 0.00 | 0.00 | 79 | 1011.0 |
| 20260502233559 | 51 | 185 | 0.0 | 2.0 | 0.00 | 0.00 | 0.00 | 80 | 1010.9 |
| 20260502233101 | 51 | 0 | 0.0 | 2.0 | 0.00 | 0.00 | 0.00 | 79 | 1011.0 |
| 20260502232559 | 51 | 0 | 0.0 | 1.0 | 0.00 | 0.00 | 0.00 | 79 | 1010.9 |
| 20260502232100 | 51 | 0 | 0.0 | 2.0 | 0.00 | 0.00 | 0.00 | 79 | 1010.8 |
| 20260502231604 | 51 | 0 | 0.0 | 2.0 | 0.00 | 0.00 | 0.00 | 79 | 1010.9 |
| 20260502231104 | 51 | 185 | 0.0 | 2.0 | 0.00 | 0.00 | 0.00 | 78 | 1010.9 |
| 20260502230600 | 51 | 244 | 0.0 | 3.0 | 0.00 | 0.00 | 0.00 | 78 | 1010.9 |
| 20260502230100 | 51 | 192 | 0.0 | 3.0 | 0.00 | 0.00 | 0.00 | 79 | 1011.0 |
| 20260502225600 | 51 | 178 | 0.0 | 2.0 | 0.00 | 0.00 | 0.00 | 79 | 1011.1 |
| 20260502225100 | 51 | 0 | 0.0 | 2.0 | 0.00 | 0.00 | 0.00 | 80 | 1011.1 |
| 20260502224609 | 51 | 0 | 0.0 | 3.0 | 0.00 | 0.00 | 0.00 | 79 | 1010.9 |
| 20260502224103 | 51 | 0 | 0.0 | 3.0 | 0.00 | 0.00 | 0.00 | 79 | 1010.8 |
| 20260502223600 | 52 | 211 | 0.0 | 3.0 | 0.00 | 0.00 | 0.00 | 78 | 1010.7 |
| 20260502223102 | 52 | 0 | 0.0 | 3.0 | 0.00 | 0.00 | 0.00 | 78 | 1010.7 |
| 20260502222600 | 52 | 0 | 0.0 | 3.0 | 0.00 | 0.00 | 0.00 | 78 | 1010.6 |
| 20260502222059 | 52 | 0 | 0.0 | 1.0 | 0.00 | 0.00 | 0.00 | 77 | 1010.6 |
| 20260502221600 | 52 | 0 | 0.0 | 1.0 | 0.00 | 0.00 | 0.00 | 77 | 1010.6 |
| 20260502221100 | 52 | 0 | 0.0 | 2.0 | 0.00 | 0.00 | 0.00 | 77 | 1010.6 |
| 20260502220558 | 52 | 0 | 0.0 | 4.0 | 0.00 | 0.00 | 0.00 | 76 | 1010.7 |
| 20260502220100 | 52 | 0 | 0.0 | 4.0 | 0.00 | 0.00 | 0.00 | 76 | 1010.5 |
| 20260502215603 | 52 | 176 | 0.0 | 1.0 | 0.00 | 0.00 | 0.00 | 76 | 1010.4 |
| 20260502215102 | 52 | 0 | 0.0 | 4.0 | 0.00 | 0.00 | 0.00 | 75 | 1010.6 |
| 20260502214606 | 52 | 196 | 0.0 | 4.0 | 0.00 | 0.00 | 0.00 | 76 | 1010.6 |
| 20260502214103 | 52 | 131 | 0.0 | 2.0 | 0.00 | 0.00 | 0.00 | 76 | 1010.6 |
| 20260502213601 | 52 | 0 | 0.0 | 4.0 | 0.00 | 0.00 | 0.00 | 76 | 1010.7 |
| 20260502213101 | 52 | 198 | 0.0 | 4.0 | 0.00 | 0.00 | 0.00 | 75 | 1010.5 |
| 20260502212601 | 52 | 200 | 0.0 | 3.0 | 0.00 | 0.00 | 0.00 | 76 | 1010.3 |
| 20260502212100 | 52 | 153 | 1.0 | 3.0 | 0.00 | 0.00 | 0.00 | 75 | 1010.3 |
| 20260502211559 | 52 | 62 | 1.0 | 3.0 | 0.00 | 0.00 | 0.00 | 76 | 1010.3 |
| 20260502211059 | 52 | 98 | 0.0 | 3.0 | 0.00 | 0.00 | 0.00 | 76 | 1010.4 |
| 20260502210559 | 52 | 0 | 1.0 | 3.0 | 0.00 | 0.00 | 0.00 | 76 | 1010.4 |
| 20260502210133 | 52 | 115 | 0.0 | 3.0 | 0.00 | 0.00 | 0.00 | 75 | 1010.7 |
| 20260502205600 | 52 | 98 | 1.0 | 3.0 | 0.00 | 0.00 | 0.00 | 75 | 1010.7 |
| 20260502205057 | 53 | 221 | 0.0 | 3.0 | 0.00 | 0.00 | 0.00 | 74 | 1010.8 |
| 20260502204601 | 53 | 0 | 0.0 | 3.0 | 0.00 | 0.00 | 0.00 | 74 | 1010.7 |
| 20260502204103 | 53 | 0 | 1.0 | 4.0 | 0.00 | 0.00 | 0.00 | 75 | 1010.7 |
| 20260502203602 | 53 | 0 | 1.0 | 6.0 | 0.00 | 0.00 | 0.00 | 75 | 1010.6 |
| 20260502203100 | 53 | 163 | 0.0 | 7.0 | 0.00 | 0.00 | 0.00 | 75 | 1010.8 |
| 20260502202601 | 53 | 204 | 1.0 | 7.0 | 0.00 | 0.00 | 0.00 | 75 | 1010.7 |
| 20260502202103 | 53 | 132 | 1.0 | 4.0 | 0.00 | 0.00 | 0.00 | 75 | 1010.9 |
| 20260502201612 | 53 | 64 | 1.0 | 4.0 | 0.00 | 0.00 | 0.00 | 76 | 1010.9 |
| 20260502201100 | 53 | 0 | 0.0 | 4.0 | 0.00 | 0.00 | 0.00 | 76 | 1011.0 |
| 20260502200601 | 53 | 221 | 1.0 | 4.0 | 0.00 | 0.00 | 0.00 | 77 | 1011.0 |
| 20260502200058 | 53 | 0 | 0.0 | 2.0 | 0.00 | 0.00 | 0.00 | 76 | 1010.9 |
| 20260502195600 | 53 | 0 | 0.0 | 3.0 | 0.00 | 0.00 | 0.00 | 76 | 1011.0 |
| 20260502195059 | 53 | 0 | 0.0 | 3.0 | 0.00 | 0.00 | 0.00 | 75 | 1011.1 |
| 20260502194600 | 53 | 0 | 0.0 | 3.0 | 0.00 | 0.00 | 0.00 | 75 | 1011.2 |
| 20260502194100 | 53 | 0 | 0.0 | 4.0 | 0.00 | 0.00 | 0.00 | 74 | 1011.1 |
| 20260502193600 | 53 | 0 | 1.0 | 4.0 | 0.00 | 0.00 | 0.00 | 74 | 1011.2 |
| 20260502193100 | 53 | 0 | 0.0 | 4.0 | 0.00 | 0.00 | 0.00 | 72 | 1011.3 |